TimeEST,TemperatureF,Dew PointF,Humidity,Sea Level PressureIn,VisibilityMPH,Wind Direction,Wind SpeedMPH,Gust SpeedMPH,PrecipitationIn,Events,Conditions,WindDirDegrees,DateUTC
12:53 AM,42.1,39.0,89,30.16,6.0,WNW,3.5,-,N/A,,Clear,290,2012-11-21 05:53:00
1:00 AM,41.0,37.4,87,30.15,2.5,WNW,4.6,-,N/A,,Scattered Clouds,300,2012-11-21 06:00:00
1:07 AM,39.2,37.4,93,30.16,6.0,WNW,4.6,-,N/A,,Mostly Cloudy,300,2012-11-21 06:07:00
1:53 AM,39.9,37.0,89,30.16,6.0,Calm,Calm,-,N/A,,Scattered Clouds,0,2012-11-21 06:53:00
1:58 AM,39.2,37.4,93,30.16,0.2,Calm,Calm,-,N/A,Fog,Fog,0,2012-11-21 06:58:00
2:14 AM,39.2,37.4,93,30.17,1.0,Calm,Calm,-,N/A,,Scattered Clouds,0,2012-11-21 07:14:00
2:53 AM,37.9,35.1,89,30.18,1.0,Calm,Calm,-,0.01,,Scattered Clouds,0,2012-11-21 07:53:00
3:00 AM,35.6,33.8,93,30.18,0.2,Calm,Calm,-,N/A,Fog,Fog,0,2012-11-21 08:00:00
3:10 AM,35.6,33.8,93,30.17,0.2,Calm,Calm,-,N/A,Fog,Fog,0,2012-11-21 08:10:00
3:30 AM,37.4,33.8,87,30.18,1.0,Calm,Calm,-,N/A,,Scattered Clouds,0,2012-11-21 08:30:00
3:53 AM,36.0,33.1,89,30.19,1.0,Calm,Calm,-,N/A,,Scattered Clouds,0,2012-11-21 08:53:00
4:00 AM,37.4,33.8,87,30.18,0.8,WNW,3.5,-,N/A,,Mostly Cloudy,300,2012-11-21 09:00:00
4:06 AM,37.4,33.8,87,30.18,1.0,WNW,3.5,-,N/A,,Mostly Cloudy,290,2012-11-21 09:06:00
4:45 AM,35.6,33.8,93,30.19,0.8,Calm,Calm,-,N/A,,Mostly Cloudy,0,2012-11-21 09:45:00
4:53 AM,36.0,33.1,89,30.19,0.2,Calm,Calm,-,N/A,Fog,Fog,0,2012-11-21 09:53:00
5:23 AM,35.6,32.0,87,30.19,0.2,Calm,Calm,-,N/A,Fog,Fog,0,2012-11-21 10:23:00
5:53 AM,33.1,30.9,92,30.21,0.2,Calm,Calm,-,N/A,Fog,Fog,0,2012-11-21 10:53:00
6:02 AM,35.6,32.0,87,30.20,0.2,Calm,Calm,-,N/A,Fog,Fog,0,2012-11-21 11:02:00
6:10 AM,35.6,32.0,87,30.20,0.2,Calm,Calm,-,N/A,Fog,Fog,0,2012-11-21 11:10:00
6:38 AM,33.8,30.2,87,30.19,0.2,ESE,3.5,-,N/A,Fog,Fog,120,2012-11-21 11:38:00
6:53 AM,34.0,30.9,89,30.20,0.2,Calm,Calm,-,N/A,Fog,Fog,0,2012-11-21 11:53:00
7:10 AM,33.8,30.2,87,30.20,0.2,Calm,Calm,-,N/A,Fog,Fog,0,2012-11-21 12:10:00
7:53 AM,34.0,30.9,89,30.23,0.2,Calm,Calm,-,N/A,Fog,Fog,0,2012-11-21 12:53:00
8:34 AM,33.8,32.0,93,30.23,0.2,Calm,Calm,-,N/A,Fog,Fog,0,2012-11-21 13:34:00
8:53 AM,35.1,32.0,89,30.24,0.2,Calm,Calm,-,N/A,Fog,Fog,0,2012-11-21 13:53:00
8:56 AM,35.6,32.0,87,30.23,0.5,Calm,Calm,-,N/A,Fog,Fog,0,2012-11-21 13:56:00
9:04 AM,35.6,32.0,87,30.23,0.5,Calm,Calm,-,N/A,Fog,Fog,0,2012-11-21 14:04:00
9:16 AM,39.2,35.6,87,30.23,0.8,Calm,Calm,-,N/A,,Overcast,0,2012-11-21 14:16:00
9:25 AM,41.0,37.4,87,30.24,0.2,Calm,Calm,-,N/A,Fog,Fog,0,2012-11-21 14:25:00
9:53 AM,45.0,41.0,86,30.25,0.5,Calm,Calm,-,N/A,Fog,Fog,0,2012-11-21 14:53:00
10:08 AM,46.4,42.8,87,30.24,1.2,Calm,Calm,-,N/A,,Scattered Clouds,0,2012-11-21 15:08:00
10:23 AM,48.2,44.6,87,30.24,2.5,Calm,Calm,-,N/A,,Partly Cloudy,0,2012-11-21 15:23:00
10:33 AM,46.4,42.8,87,30.24,3.0,Calm,Calm,-,N/A,,Clear,0,2012-11-21 15:33:00
10:53 AM,51.1,42.1,71,30.25,5.0,Calm,Calm,-,N/A,,Haze,0,2012-11-21 15:53:00
11:53 AM,57.0,41.0,55,30.24,10.0,Variable,3.5,-,N/A,,Clear,0,2012-11-21 16:53:00
12:53 PM,59.0,41.0,51,30.22,10.0,SSW,8.1,-,N/A,,Clear,200,2012-11-21 17:53:00
1:53 PM,60.1,39.9,47,30.19,10.0,SW,8.1,-,N/A,,Clear,220,2012-11-21 18:53:00
2:53 PM,60.1,39.9,47,30.19,9.0,WSW,9.2,-,N/A,,Clear,240,2012-11-21 19:53:00
3:53 PM,59.0,41.0,51,30.18,8.0,SW,6.9,-,N/A,,Clear,220,2012-11-21 20:53:00
4:53 PM,53.1,39.9,61,30.17,6.0,SSW,6.9,-,N/A,,Haze,200,2012-11-21 21:53:00
5:53 PM,48.9,39.0,69,30.19,7.0,South,5.8,-,N/A,,Clear,190,2012-11-21 22:53:00
6:53 PM,46.9,39.0,74,30.19,6.0,SSE,6.9,-,N/A,,Haze,160,2012-11-21 23:53:00
7:53 PM,44.1,37.0,76,30.19,5.0,South,4.6,-,N/A,,Haze,180,2012-11-22 00:53:00
8:53 PM,43.0,37.0,80,30.18,4.0,South,3.5,-,N/A,,Haze,170,2012-11-22 01:53:00
9:53 PM,44.1,39.0,82,30.19,4.0,Calm,Calm,-,N/A,,Haze,0,2012-11-22 02:53:00
10:14 PM,39.2,35.6,87,30.18,2.5,Calm,Calm,-,N/A,,Clear,0,2012-11-22 03:14:00
10:34 PM,39.2,35.6,87,30.18,1.2,Calm,Calm,-,N/A,,Clear,0,2012-11-22 03:34:00
10:44 PM,41.0,37.4,87,30.18,3.0,SSW,3.5,-,N/A,,Clear,200,2012-11-22 03:44:00
10:53 PM,41.0,37.0,86,30.18,3.0,South,3.5,-,N/A,,Clear,190,2012-11-22 03:53:00
11:00 PM,41.0,37.4,87,30.17,2.5,South,3.5,-,N/A,,Clear,190,2012-11-22 04:00:00
11:44 PM,41.0,37.4,87,30.18,1.8,Calm,Calm,-,N/A,,Clear,0,2012-11-22 04:44:00
11:53 PM,39.0,35.1,86,30.18,0.5,Calm,Calm,-,N/A,Fog,Fog,0,2012-11-22 04:53:00